• In Czech Republic
  • List of Countries
  • For 7 days
  • Water Temperature
  • Satellite Maps
  • Weather Map
  • Weather Widgets
  • user-avatar
    Login

    Hourly Weather Primorsko

    Today, 25 September, Tuesday

    Time Temperature Precipitation Wind Pressure Humidity
    00:00 +17°C° 0.1 mm 11 mps 762 mmHg 56%
    01:00 +16°C° 0.1 mm 10 mps 763 mmHg 60%
    02:00 +13°C° 0 mm 10 mps 763 mmHg 65%
    03:00 +12°C° 0.3 mm 10 mps 764 mmHg 70%
    04:00 +12°C° 0.3 mm 9 mps 765 mmHg 75%
    05:00 +12°C° 0.3 mm 8 mps 765 mmHg 79%
    06:00 +12°C° 0.5 mm 8 mps 766 mmHg 79%
    07:00 +11°C° 0.5 mm 7 mps 766 mmHg 79%
    08:00 +11°C° 0.5 mm 7 mps 767 mmHg 79%
    09:00 +13°C° 0.2 mm 6 mps 767 mmHg 74%
    10:00 +14°C° 0.2 mm 6 mps 767 mmHg 69%
    11:00 +14°C° 0.2 mm 5 mps 768 mmHg 64%
    12:00 +16°C° 0 mm 5 mps 768 mmHg 55%
    13:00 +17°C° 0 mm 5 mps 768 mmHg 46%
    14:00 +20°C° 0 mm 5 mps 768 mmHg 37%
    15:00 +20°C° 0 mm 5 mps 768 mmHg 36%
    16:00 +19°C° 0 mm 5 mps 768 mmHg 35%
    17:00 +19°C° 0 mm 5 mps 768 mmHg 34%
    18:00 +16°C° 0 mm 5 mps 768 mmHg 43%
    19:00 +15°C° 0 mm 5 mps 769 mmHg 51%
    20:00 +14°C° 0 mm 5 mps 769 mmHg 60%
    21:00 +13°C° 0 mm 6 mps 770 mmHg 57%
    22:00 +13°C° 0 mm 6 mps 770 mmHg 55%
    23:00 +12°C° 0 mm 7 mps 771 mmHg 53%

    Tomorrow, 26 September, Wednesday

    Time Temperature Precipitation Wind Pressure Humidity
    00:00 +11°C° 0 mm 7 mps 771 mmHg 53%
    01:00 +11°C° 0 mm 8 mps 771 mmHg 54%
    02:00 +11°C° 0 mm 8 mps 771 mmHg 54%
    03:00 +11°C° 0 mm 8 mps 771 mmHg 54%
    04:00 +10°C° 0 mm 8 mps 771 mmHg 54%
    05:00 +10°C° 0 mm 9 mps 772 mmHg 54%
    06:00 +10°C° 0 mm 9 mps 772 mmHg 53%
    07:00 +11°C° 0 mm 9 mps 772 mmHg 52%
    08:00 +11°C° 0 mm 10 mps 772 mmHg 51%
    09:00 +13°C° 0.1 mm 10 mps 772 mmHg 47%
    10:00 +14°C° 0.1 mm 10 mps 772 mmHg 43%
    11:00 +16°C° 0.1 mm 10 mps 772 mmHg 39%
    12:00 +16°C° 0.1 mm 10 mps 772 mmHg 38%
    13:00 +17°C° 0.1 mm 11 mps 772 mmHg 37%
    14:00 +17°C° 0.1 mm 11 mps 772 mmHg 37%
    15:00 +17°C° 0.1 mm 11 mps 772 mmHg 39%
    16:00 +16°C° 0.1 mm 10 mps 772 mmHg 41%
    17:00 +14°C° 0.1 mm 10 mps 771 mmHg 43%
    18:00 +14°C° 0.1 mm 10 mps 772 mmHg 46%
    19:00 +13°C° 0.1 mm 10 mps 772 mmHg 50%
    20:00 +12°C° 0.1 mm 9 mps 772 mmHg 53%
    21:00 +12°C° 0.1 mm 9 mps 772 mmHg 53%
    22:00 +12°C° 0.1 mm 9 mps 772 mmHg 53%
    23:00 +11°C° 0.1 mm 9 mps 773 mmHg 53%

    Day after tomorrow, 27 September, Thursday

    Time Temperature Precipitation Wind Pressure Humidity
    00:00 +11°C° 0.1 mm 9 mps 772 mmHg 53%
    01:00 +11°C° 0.1 mm 9 mps 772 mmHg 54%
    02:00 +11°C° 0.1 mm 9 mps 772 mmHg 54%
    03:00 +10°C° 0.1 mm 9 mps 772 mmHg 54%
    04:00 +10°C° 0.1 mm 9 mps 772 mmHg 54%
    05:00 +10°C° 0.1 mm 9 mps 771 mmHg 54%
    06:00 +10°C° 0.1 mm 9 mps 771 mmHg 53%
    07:00 +11°C° 0.1 mm 9 mps 771 mmHg 52%
    08:00 +12°C° 0.1 mm 9 mps 771 mmHg 51%
    09:00 +13°C° 0.1 mm 9 mps 771 mmHg 50%
    10:00 +15°C° 0.1 mm 9 mps 771 mmHg 50%
    11:00 +16°C° 0.1 mm 8 mps 771 mmHg 50%
    12:00 +17°C° 0.1 mm 8 mps 770 mmHg 51%
    13:00 +17°C° 0.1 mm 8 mps 770 mmHg 52%
    14:00 +18°C° 0.1 mm 8 mps 770 mmHg 53%
    15:00 +17°C° 0 mm 8 mps 769 mmHg 55%
    16:00 +17°C° 0 mm 8 mps 769 mmHg 57%
    17:00 +17°C° 0 mm 7 mps 769 mmHg 59%
    18:00 +16°C° 0 mm 7 mps 769 mmHg 63%
    19:00 +15°C° 0 mm 7 mps 769 mmHg 67%
    20:00 +14°C° 0 mm 6 mps 769 mmHg 71%
    21:00 +14°C° 0 mm 6 mps 769 mmHg 71%
    22:00 +14°C° 0 mm 6 mps 769 mmHg 70%
    23:00 +13°C° 0 mm 6 mps 769 mmHg 70%

    28 September, Friday

    Time Temperature Precipitation Wind Pressure Humidity
    00:00 +13°C° 0 mm 6 mps 768 mmHg 70%
    01:00 +13°C° 0 mm 6 mps 768 mmHg 70%
    02:00 +13°C° 0 mm 6 mps 768 mmHg 70%
    03:00 +13°C° 0 mm 6 mps 767 mmHg 70%
    04:00 +13°C° 0 mm 6 mps 767 mmHg 70%
    05:00 +13°C° 0 mm 6 mps 767 mmHg 69%
    06:00 +14°C° 0 mm 6 mps 767 mmHg 67%
    07:00 +15°C° 0 mm 6 mps 767 mmHg 64%
    08:00 +16°C° 0 mm 6 mps 766 mmHg 61%
    09:00 +17°C° 0 mm 6 mps 766 mmHg 58%
    10:00 +20°C° 0 mm 6 mps 766 mmHg 55%
    11:00 +21°C° 0 mm 6 mps 766 mmHg 52%
    12:00 +22°C° 0 mm 6 mps 765 mmHg 51%
    13:00 +22°C° 0 mm 6 mps 765 mmHg 50%
    14:00 +23°C° 0 mm 6 mps 764 mmHg 50%
    15:00 +22°C° 0 mm 6 mps 764 mmHg 53%
    16:00 +21°C° 0 mm 5 mps 763 mmHg 56%
    17:00 +20°C° 0 mm 5 mps 763 mmHg 59%
    18:00 +19°C° 0 mm 5 mps 763 mmHg 64%
    19:00 +18°C° 0 mm 4 mps 763 mmHg 70%
    20:00 +17°C° 0 mm 4 mps 763 mmHg 75%
    21:00 +15°C° 0 mm 4 mps 762 mmHg 77%
    22:00 +16°C° 0 mm 3 mps 762 mmHg 79%
    23:00 +16°C° 0 mm 3 mps 762 mmHg 81%

    29 September, Saturday

    Time Temperature Precipitation Wind Pressure Humidity
    00:00 +16°C° 0 mm 3 mps 762 mmHg 82%
    01:00 +15°C° 0 mm 4 mps 761 mmHg 83%
    02:00 +15°C° 0 mm 4 mps 761 mmHg 84%
    03:00 +15°C° 0 mm 4 mps 761 mmHg 84%
    04:00 +15°C° 0 mm 4 mps 760 mmHg 84%
    05:00 +16°C° 0 mm 3 mps 760 mmHg 84%
    06:00 +17°C° 0 mm 4 mps 760 mmHg 82%
    07:00 +17°C° 0 mm 4 mps 760 mmHg 80%
    08:00 +18°C° 0 mm 4 mps 760 mmHg 78%
    09:00 +19°C° 0.1 mm 4 mps 760 mmHg 77%
    10:00 +19°C° 0.1 mm 4 mps 760 mmHg 76%
    11:00 +20°C° 0.1 mm 4 mps 759 mmHg 76%
    12:00 +20°C° 0.3 mm 5 mps 759 mmHg 76%
    13:00 +20°C° 0.3 mm 5 mps 759 mmHg 76%
    14:00 +21°C° 0.3 mm 6 mps 759 mmHg 76%
    15:00 +20°C° 0.2 mm 6 mps 759 mmHg 78%
    16:00 +20°C° 0.2 mm 6 mps 759 mmHg 80%
    17:00 +19°C° 0.2 mm 6 mps 759 mmHg 83%
    18:00 +19°C° 0.5 mm 6 mps 759 mmHg 84%
    19:00 +17°C° 0.5 mm 6 mps 759 mmHg 86%
    20:00 +17°C° 0.5 mm 7 mps 759 mmHg 87%
    21:00 +17°C° 0.6 mm 6 mps 759 mmHg 88%
    22:00 +17°C° 0.6 mm 6 mps 759 mmHg 89%
    23:00 +17°C° 0.6 mm 6 mps 759 mmHg 89%

    30 September, Sunday

    Time Temperature Precipitation Wind Pressure Humidity
    00:00 +17°C° 0.9 mm 6 mps 759 mmHg 90%
    01:00 +17°C° 0.9 mm 7 mps 759 mmHg 91%
    02:00 +17°C° 0.9 mm 7 mps 759 mmHg 91%
    03:00 +16°C° 1.5 mm 7 mps 759 mmHg 91%
    04:00 +16°C° 1.5 mm 7 mps 759 mmHg 91%
    05:00 +16°C° 1.5 mm 8 mps 759 mmHg 90%
    06:00 +17°C° 1.2 mm 8 mps 759 mmHg 90%
    07:00 +17°C° 1.2 mm 8 mps 759 mmHg 89%
    08:00 +17°C° 1.2 mm 8 mps 759 mmHg 89%
    09:00 +17°C° 0.7 mm 7 mps 760 mmHg 88%
    10:00 +18°C° 0.7 mm 7 mps 760 mmHg 87%
    11:00 +18°C° 0.7 mm 7 mps 760 mmHg 87%
    12:00 +18°C° 0.6 mm 7 mps 760 mmHg 86%
    13:00 +20°C° 0.6 mm 7 mps 760 mmHg 85%
    14:00 +20°C° 0.6 mm 6 mps 760 mmHg 84%
    15:00 +20°C° 0.7 mm 6 mps 760 mmHg 84%
    16:00 +19°C° 0.7 mm 6 mps 760 mmHg 85%
    17:00 +19°C° 0.7 mm 6 mps 760 mmHg 85%
    18:00 +19°C° 0.6 mm 6 mps 760 mmHg 87%
    19:00 +17°C° 0.6 mm 6 mps 760 mmHg 88%
    20:00 +17°C° 0.6 mm 6 mps 760 mmHg 90%
    21:00 +17°C° 1.3 mm 5 mps 760 mmHg 91%
    22:00 +17°C° 1.3 mm 5 mps 760 mmHg 92%
    23:00 +18°C° 1.3 mm 4 mps 760 mmHg 93%
    Show more